Date String (YYYY-MM-DD hh:mm:ss) UTC,Instrument flags,Ambient pressure (hPa),Sample flow (lpm),Bypass flow (lpm),Sample temperature (°C),Ambient temperature (°C),ASC tube jacket temperature (°C),LED temperature (°C),Box temperature (°C),Sample RH (%),Span deviation,Mass concentration (μg/m³),Mass concentration (μg/m³),Mass concentration (μg/m³)
DateTimeUTC,F1_M11,P_M11,Q1_M11,Q2_M11,T1_M11,T2_M11,T3_M11,T4_M11,T5_M11,U1_M11,ZSPAN_M11,X0_M11,X2_M11,X1_M11
2022-02-19 17:00:00,,0826.9,4.98,0.00,23.4,22.7,00.0,32.4,25.2,10.4,0000.0,0004.57,0002.26,0001.83
2022-02-19 17:01:00,,0827.0,4.99,0.00,23.4,22.7,00.0,32.4,25.2,10.3,0000.0,0004.62,0002.22,0001.84
2022-02-19 17:02:00,,0826.9,5.01,0.00,23.5,22.7,00.0,32.4,25.2,10.4,0000.0,0005.12,0002.20,0001.83
2022-02-19 17:03:00,,0826.9,5.01,0.00,23.5,22.8,00.0,32.4,25.2,10.2,0000.0,0005.38,0002.19,0001.83
2022-02-19 17:04:00,,0826.9,5.00,0.00,23.5,22.8,00.0,32.4,25.3,10.3,0000.0,0005.56,0002.27,0001.87
2022-02-19 17:05:00,,0826.9,5.00,0.00,23.5,22.8,00.0,32.4,25.3,10.5,0000.0,0005.60,0002.29,0001.90
2022-02-19 17:06:00,,0826.9,4.99,0.00,23.5,22.9,00.0,32.4,25.4,10.4,0000.0,0005.62,0002.30,0001.91
2022-02-19 17:07:00,,0826.9,5.00,0.00,23.6,22.9,00.0,32.4,25.4,10.2,0000.0,0005.62,0002.34,0001.94
2022-02-19 17:08:00,,0826.8,5.01,0.00,23.6,22.9,00.0,32.5,25.4,10.2,0000.0,0005.08,0002.35,0001.96
2022-02-19 17:09:00,,0826.8,5.01,0.00,23.6,22.9,00.0,32.5,25.4,10.4,0000.0,0004.99,0002.37,0001.99
2022-02-19 17:10:00,,0826.8,4.99,0.00,23.6,22.9,00.0,32.5,25.4,10.3,0000.0,0004.74,0002.37,0002.01
2022-02-19 17:11:00,,0826.7,4.99,0.00,23.6,22.9,00.0,32.5,25.4,10.2,0000.0,0004.63,0002.40,0002.03
2022-02-19 17:12:00,,0826.8,5.00,0.00,23.6,22.9,00.0,32.5,25.4,10.6,0000.0,0004.34,0002.41,0002.06
2022-02-19 17:13:00,,0826.8,5.02,0.00,23.6,22.8,00.0,32.5,25.4,10.7,0000.0,0004.16,0002.49,0002.13
2022-02-19 17:14:00,,0826.8,5.00,0.00,23.6,22.8,00.0,32.5,25.4,10.9,0000.0,0003.56,0002.58,0002.18
2022-02-19 17:15:00,,0826.8,5.00,0.00,23.6,22.8,00.0,32.5,25.3,10.9,0000.0,0004.99,0002.64,0002.24
2022-02-19 17:16:00,,0826.7,5.00,0.00,23.6,22.8,00.0,32.5,25.3,10.8,0000.0,0006.44,0002.68,0002.30
2022-02-19 17:17:00,,0826.6,5.02,0.00,23.5,22.8,00.0,32.5,25.2,10.8,0000.0,0006.51,0002.75,0002.37
2022-02-19 17:18:00,,0826.6,5.00,0.00,23.5,22.8,00.0,32.5,25.3,10.6,0000.0,0006.62,0002.83,0002.44
2022-02-19 17:19:00,,0826.6,4.99,0.00,23.6,22.8,00.0,32.5,25.3,10.7,0000.0,0006.68,0002.88,0002.49
2022-02-19 17:20:00,,0826.6,4.99,0.00,23.6,22.9,00.0,32.5,25.4,10.6,0000.0,0007.05,0002.90,0002.53
2022-02-19 17:21:00,,0826.6,5.00,0.00,23.6,22.9,00.0,32.5,25.4,10.9,0000.0,0007.47,0002.94,0002.56
2022-02-19 17:22:00,,0826.7,5.01,0.00,23.6,22.9,00.0,32.5,25.4,10.6,0000.0,0007.91,0002.97,0002.60
2022-02-19 17:23:00,,0826.7,4.99,0.00,23.6,22.9,00.0,32.6,25.4,10.4,0000.0,0008.02,0003.00,0002.61
2022-02-19 17:24:00,,0826.7,4.99,0.00,23.6,22.9,00.0,32.6,25.4,10.6,0000.0,0008.09,0003.01,0002.60
2022-02-19 17:25:00,,0826.7,5.00,0.00,23.6,22.9,00.0,32.6,25.4,10.7,0000.0,0008.92,0002.96,0002.56
2022-02-19 17:26:00,,0826.7,4.99,0.00,23.6,22.9,00.0,32.6,25.4,10.4,0000.0,0008.80,0002.86,0002.50
2022-02-19 17:27:00,,0826.6,5.01,0.00,23.6,22.9,00.0,32.6,25.3,10.9,0000.0,0007.88,0002.77,0002.43
2022-02-19 17:28:00,,0826.6,5.00,0.00,23.6,22.9,00.0,32.6,25.3,10.3,0000.0,0008.37,0002.69,0002.35
2022-02-19 17:29:00,,0826.6,4.99,0.00,23.6,22.9,00.0,32.6,25.3,09.9,0000.0,0008.33,0002.58,0002.26
2022-02-19 17:30:00,,0826.6,5.01,0.00,23.5,22.9,00.0,32.6,25.3,09.9,0000.0,0008.30,0002.48,0002.17
2022-02-19 17:31:00,,0826.6,4.99,0.00,23.5,22.8,00.0,32.6,25.3,10.1,0000.0,0008.06,0002.38,0002.07
2022-02-19 17:32:00,,0826.5,5.00,0.00,23.6,22.9,00.0,32.6,25.3,10.0,0000.0,0007.75,0002.32,0001.99
2022-02-19 17:33:00,,0826.5,5.01,0.00,23.6,22.9,00.0,32.6,25.4,09.9,0000.0,0007.38,0002.28,0001.92
2022-02-19 17:34:00,,0826.6,4.99,0.00,23.6,22.9,00.0,32.6,25.4,09.7,0000.0,0007.23,0002.21,0001.84
2022-02-19 17:35:00,,0826.6,5.00,0.00,23.6,22.9,00.0,32.6,25.5,09.6,0000.0,0006.87,0002.09,0001.76
2022-02-19 17:36:00,,0826.6,5.00,0.00,23.7,23.0,00.0,32.6,25.5,09.9,0000.0,0005.20,0002.01,0001.71
2022-02-19 17:37:00,,0826.6,5.01,0.00,23.7,23.0,00.0,32.6,25.5,10.0,0000.0,0004.41,0001.99,0001.70
2022-02-19 17:38:00,,0826.6,5.00,0.00,23.7,23.0,00.0,32.6,25.5,10.4,0000.0,0004.12,0002.00,0001.69
2022-02-19 17:39:00,,0826.5,4.99,0.00,23.7,23.0,00.0,32.6,25.5,10.2,0000.0,0003.10,0002.04,0001.69
2022-02-19 17:40:00,,0826.5,4.99,0.00,23.7,23.0,00.0,32.6,25.5,10.3,0000.0,0004.03,0002.08,0001.72
2022-02-19 17:41:00,,0826.5,5.01,0.00,23.7,23.1,00.0,32.6,25.5,10.5,0000.0,0004.34,0002.15,0001.76
2022-02-19 17:42:00,,0826.5,5.00,0.00,23.7,23.1,00.0,32.6,25.5,10.6,0000.0,0004.39,0002.22,0001.82
2022-02-19 17:43:00,,0826.4,5.01,0.00,23.7,23.1,00.0,32.6,25.5,10.3,0000.0,0004.33,0002.26,0001.87
2022-02-19 17:44:00,,0826.2,5.00,0.00,23.8,23.1,00.0,32.7,25.6,10.4,0000.0,0004.32,0002.29,0001.92
2022-02-19 17:45:00,,0826.2,5.00,0.00,23.8,23.0,00.0,32.7,25.6,10.5,0000.0,0004.32,0002.34,0001.99
2022-02-19 17:46:00,,0826.1,4.98,0.00,23.7,23.0,00.0,32.7,25.5,10.5,0000.0,0005.05,0002.44,0002.06
2022-02-19 17:47:00,,0826.2,5.00,0.00,23.8,23.0,00.0,32.7,25.5,10.3,0000.0,0005.30,0002.53,0002.12
2022-02-19 17:48:00,,0826.2,5.01,0.00,23.8,23.0,00.0,32.7,25.6,10.4,0000.0,0005.37,0002.57,0002.14
2022-02-19 17:49:00,,0826.2,4.99,0.00,23.8,23.1,00.0,32.7,25.6,10.7,0000.0,0005.55,0002.64,0002.17
2022-02-19 17:50:00,,0826.3,5.00,0.00,23.8,23.1,00.0,32.7,25.6,10.7,0000.0,0005.63,0002.69,0002.21
2022-02-19 17:51:00,,0826.4,5.00,0.00,23.8,23.1,00.0,32.7,25.6,10.5,0000.0,0004.67,0002.69,0002.24
2022-02-19 17:52:00,,0826.2,5.00,0.00,23.8,23.1,00.0,32.7,25.6,10.5,0000.0,0004.33,0002.68,0002.26
2022-02-19 17:53:00,,0826.2,5.01,0.00,23.8,23.2,00.0,32.7,25.6,10.3,0000.0,0004.40,0002.69,0002.28
2022-02-19 17:54:00,,0826.3,5.01,0.00,23.9,23.2,00.0,32.7,25.7,10.8,0000.0,0004.38,0002.70,0002.30
2022-02-19 17:55:00,,0826.3,5.00,0.00,23.9,23.2,00.0,32.8,25.7,10.5,0000.0,0004.41,0002.73,0002.32
2022-02-19 17:56:00,,0826.4,5.00,0.00,23.9,23.2,00.0,32.8,25.7,10.5,0000.0,0004.50,0002.79,0002.36
2022-02-19 17:57:00,,0826.3,5.00,0.00,23.9,23.2,00.0,32.8,25.7,10.4,0000.0,0005.23,0002.85,0002.41
2022-02-19 17:58:00,,0826.3,5.01,0.00,23.9,23.3,00.0,32.8,25.7,10.5,0000.0,0005.63,0002.87,0002.44
2022-02-19 17:59:00,,0826.3,5.00,0.00,23.9,23.3,00.0,32.8,25.7,10.1,0000.0,0005.63,0002.92,0002.49
